Fort Wayne, IN

4:59 AM EST on February 06, 2016 (GMT -0500)
Fort Wayne International

Weather History for KFWA - June, 2013

Change the Weather History Date:

Saturday, June 22, 2013

  Actual Average Record
Temperature  
Mean Temperature 79 °F 72 °F  
Max Temperature 90 °F 83 °F 99 °F (1988)
Min Temperature 68 °F 61 °F 40 °F (1902)
Degree Days  
Heating Degree Days 0 0  
Month to date heating degree days 19 29  
Since 1 June heating degree days 19 29  
Since 1 July heating degree days 6000 6101  
Cooling Degree Days 14 8  
Month to date cooling degree days 110 117  
Year to date cooling degree days 215 174  
Since 1 June cooling degree days 110 117  
Growing Degree Days 30 (Base 50)    
Moisture  
Dew Point 67 °F    
Average Humidity 71    
Maximum Humidity 90    
Minimum Humidity 52    
Precipitation  
Precipitation T in 0.13 in 4.43 in (1900)
Month to date precipitation 2.38 3.16  
Year to date precipitation 20.05 17.96  
Snow  
Snow 0.00 in 0.00 in 0.00 in (2002)
Month to date snowfall 0.0 0.0  
Since 1 June snowfall 0.0 0.0  
Since 1 July snowfall 38.5 33.5  
Snow Depth 0.00 in    
Sea Level Pressure  
Sea Level Pressure 30.07 in    
Wind  
Wind Speed 7 mph (SSW)    
Max Wind Speed 30 mph    
Max Gust Speed 40 mph    
Visibility 10 miles    
Events Rain , Thunderstorm    
T = Trace of Precipitation, MM = Missing Value Source: NWS Daily Summary

Daily Weather History Graph

Daily Weather History Graph

Search for Another Location

Airport or City:

Trip Planner

Search our weather history database for the weather conditions in past years. The results will help you decide how hot, cold, wet, or windy it might be!

Date:

Astronomy

Jun. 22, 2013 Rise Set
Actual Time 6:09 AM EDT 9:16 PM EDT
Civil Twilight 5:35 AM EDT 9:50 PM EDT
Nautical Twilight 4:52 AM EDT 10:33 PM EDT
Astronomical Twilight 4:01 AM EDT 11:24 PM EDT
Moon 8:30 PM EDT (6/22) 5:21 AM EDT (6/22)
Length of Visible Light 16h 14m
Length of Day
15h 07m
Waxing Gibbous, 99% of the Moon is Illuminated
Jun 22
Waxing Gibbous
Jun 23
Full
Jun 30
Last Quarter
Jul 8
New
Jul 15
First Quarter

Hourly Weather History & Observations

Time (EDT) Temp. Heat Index Dew Point Humidity Pressure Visibility Wind Dir Wind Speed Gust Speed Precip Events Conditions
12:54 AM 73.9 °F - 64.0 °F 71% 30.11 in 10.0 mi South 3.5 mph - N/A   Overcast
1:54 AM 72.0 °F - 64.9 °F 78% 30.11 in 10.0 mi South 4.6 mph - N/A   Mostly Cloudy
2:54 AM 72.0 °F - 64.9 °F 78% 30.08 in 10.0 mi SSW 4.6 mph - N/A   Mostly Cloudy
3:54 AM 71.1 °F - 64.9 °F 81% 30.06 in 10.0 mi South 4.6 mph - N/A   Mostly Cloudy
4:54 AM 71.1 °F - 64.0 °F 78% 30.06 in 10.0 mi South 5.8 mph - N/A   Mostly Cloudy
5:54 AM 72.0 °F - 64.9 °F 78% 30.08 in 10.0 mi SSW 4.6 mph - N/A   Mostly Cloudy
6:54 AM 73.0 °F - 64.9 °F 76% 30.08 in 10.0 mi SSW 6.9 mph - N/A   Mostly Cloudy
7:54 AM 75.9 °F - 66.9 °F 74% 30.09 in 10.0 mi SW 8.1 mph - N/A   Mostly Cloudy
8:54 AM 80.1 °F 82.9 °F 69.1 °F 69% 30.11 in 8.0 mi SW 10.4 mph - N/A   Mostly Cloudy
9:54 AM 82.0 °F 85.5 °F 69.1 °F 65% 30.11 in 9.0 mi WSW 12.7 mph - N/A   Mostly Cloudy
10:54 AM 84.0 °F 87.8 °F 69.1 °F 61% 30.11 in 10.0 mi WSW 11.5 mph - N/A   Mostly Cloudy
11:54 AM 84.9 °F 90.1 °F 71.1 °F 63% 30.11 in 10.0 mi WSW 9.2 mph - N/A   Mostly Cloudy
12:54 PM 87.1 °F 92.0 °F 70.0 °F 57% 30.10 in 10.0 mi West 11.5 mph - N/A   Mostly Cloudy
1:54 PM 88.0 °F 94.7 °F 72.0 °F 59% 30.08 in 10.0 mi SSW 6.9 mph - N/A   Mostly Cloudy
2:54 PM 89.1 °F 95.0 °F 71.1 °F 55% 30.06 in 10.0 mi SSW 12.7 mph - N/A   Mostly Cloudy
3:54 PM 90.0 °F 95.4 °F 70.0 °F 52% 30.05 in 10.0 mi WSW 8.1 mph - N/A   Mostly Cloudy
4:30 PM 86.0 °F 91.8 °F 71.6 °F 62% 30.05 in 10.0 mi SSW 9.2 mph - N/A Thunderstorm Thunderstorm
4:54 PM 79.0 °F - 64.0 °F 60% 30.05 in 8.0 mi SSW 18.4 mph 24.2 mph 0.00 in Rain , Thunderstorm Light Thunderstorms and Rain
5:27 PM 75.2 °F - 68.0 °F 78% 30.04 in 10.0 mi West 6.9 mph - 0.00 in   Mostly Cloudy
5:54 PM 75.9 °F - 66.0 °F 71% 30.02 in 10.0 mi WSW 5.8 mph - 0.00 in   Mostly Cloudy
6:54 PM 78.1 °F - 68.0 °F 71% 30.02 in 10.0 mi SSW 5.8 mph - N/A   Mostly Cloudy
7:54 PM 80.1 °F 82.7 °F 68.0 °F 67% 30.03 in 10.0 mi Calm Calm - N/A   Mostly Cloudy
8:54 PM 77.0 °F - 68.0 °F 74% 30.06 in 10.0 mi SSW 8.1 mph - N/A   Mostly Cloudy
9:54 PM 73.0 °F - 66.9 °F 81% 30.07 in 10.0 mi South 4.6 mph - N/A   Mostly Cloudy
10:54 PM 73.0 °F - 66.0 °F 79% 30.07 in 10.0 mi SSW 5.8 mph - N/A   Mostly Cloudy
11:54 PM 70.0 °F - 66.0 °F 87% 30.09 in 10.0 mi South 3.5 mph - N/A   Scattered Clouds